Regional Weather Roundup
Issued by NWS

Home | Current Version | Previous Version | Graphics & Text | Print | Product List | Glossary On
Versions: 1 2 3 4 5 6 7 8 9 10 11 12 13 14 15 16 17 18 19 20 21 22 23 24 25 26 27 28 29 30 31 32 33 34 35 36 37 38 39 40 41 42 43 44 45 46 47 48 49 50
000
ASUS45 KCYS 242310
RWRWY

WYOMING REGIONAL WEATHER ROUNDUP
NATIONAL WEATHER SERVICE CHEYENNE WY
500 PM MDT SUN MAY 24 2015

NOTE:  "FAIR" INDICATES FEW OR NO CLOUDS BELOW 12,000 FEET
WITH NO SIGNIFICANT WEATHER AND/OR OBSTRUCTIONS TO VISIBILITY.

WYZ001-250000-
YELLOWSTONE NATIONAL PARK

CITY           SKY/WX    TMP DP  RH WIND       PRES   REMARKS
LK YELLOWSTONE   N/A     44  39  82 CALM      30.05R
W YELLOWSTONE  NOT AVBL

$$
WYZ002>013-054>058-071-098>099-250000-
NORTHERN WYOMING

CITY           SKY/WX    TMP DP  RH WIND       PRES   REMARKS
JACKSON        PTSUNNY   54  39  58 N12G17    29.94F
CODY           CLOUDY    48  45  87 NW9       29.99S
GREYBULL       CLOUDY    58  44  60 NW21      29.89S
WORLAND        LGT RAIN  54  48  80 NW14G20   29.90S
SHERIDAN       RAIN      51  49  92 N10       29.95S FOG
BUFFALO        LGT RAIN  49  47  93 NW13G28   29.95R FOG
GILLETTE       LGT RAIN  51  49  92 NE14      29.90S
HULETT         LGT RAIN  52  50  93 NE7       29.92F
NEWCASTLE      MOCLDY    57  45  62 MISG      29.86F

$$
WYZ014>020-022>026-101>103-250000-
CENTRAL WYOMING

CITY           SKY/WX    TMP DP  RH WIND       PRES   REMARKS
BIG PINEY      LGT RAIN  48  42  80 NE10      29.95R
PINEDALE       CLOUDY    45  39  81 S12       29.95S
DUBOIS         RAIN      45  37  76 E5        29.98S
LANDER         CLOUDY    49  41  74 NW10      29.93F
RIVERTON       LGT RAIN  51  45  79 NW14      29.94F
CASPER         CLOUDY    52  42  69 N15       29.88S
DOUGLAS        PTSUNNY   51  46  83 NW9       29.87R THUNDER

$$
WYZ021-027>030-104>119-250000-
SOUTHERN WYOMING

CITY           SKY/WX    TMP DP  RH WIND       PRES   REMARKS
EVANSTON       FAIR      47  42  83 SE7       29.96S
KEMMERER       CLOUDY    46  41  81 E5        29.95S
FORT BRIDGER   CLOUDY    48  48 100 S14       29.98F
ROCK SPRINGS   CLOUDY    45  40  82 SW7       29.95S
DIXON          CLOUDY    47  38  69 SW5       29.95F
RAWLINS        PTSUNNY   51  37  58 W5        29.91F
SARATOGA       RAIN      43  39  87 NW3       29.94S
LARAMIE        CLOUDY    43  36  76 NW18      29.91R
CHEYENNE       FAIR      55  42  61 NE9       29.86F
TORRINGTON     PTSUNNY   61  45  55 W10       29.79R
PINE BLUFFS    LGT RAIN  48  45  87 NW16      29.86F

$$


USA.gov is the U.S. government's official web portal to all federal, state and local government web resources and services.